Zurück zum Katalog

STARLINK-34591

AktivKommunikationVLEO
NORAD 64734·PAYLOAD·🇺🇸 United States

Gestartet Jul 2, 2025 von Cape Canaveral Space Force Station

Loading…

Nächste Überflüge (nächste 24 Stunden)

TLE

AktuellSource: CelesTrak SupGP

Epoche: Sep 14, 2026, 21:26 UTC

1 64734C 25144L   26257.89354167  .00015949  00000+0  47147-3 0  2575
2 64734  53.1595  20.0720 0001266  91.3928 136.0873 15.34364651    19

Verfolge STARLINK-34591 in Echtzeit mit AllMySat

Download on the App Store